Weather History for Hillsdale, MI

Change the Weather History Date:

Wednesday, November 21, 2012

  Actual Average Record
Temperature  
Mean Temperature 44 °F -  
Max Temperature 56 °F 45 °F 61 °F (1963)
Min Temperature 31 °F 28 °F 11 °F (2014)
Degree Days  
Heating Degree Days 22    
Moisture  
Dew Point 40 °F    
Average Humidity 87    
Maximum Humidity 99    
Minimum Humidity 58    
Precipitation  
Precipitation 0.00 in - - ()
Sea Level Pressure  
Sea Level Pressure 30.18 in    
Wind  
Wind Speed 1 mph (SW)    
Max Wind Speed 9 mph    
Max Gust Speed -    
Visibility 4 miles    
Events Fog    
Averages and records for this station are not official NWS values.
T = Trace of Precipitation, MM = Missing Value Source: NWS Daily Summary

Daily Weather History Graph

Daily Weather History Graph

Search for Another Location

Airport:

Trip Planner

Search our weather history database for the weather conditions in past years. The results will help you decide how hot, cold, wet, or windy it might be!

Date:

Astronomy

Nov. 21, 2012 Rise Set
Actual Time 7:35 AM EST 5:12 PM EST
Civil Twilight 7:05 AM EST 5:42 PM EST
Nautical Twilight 6:31 AM EST 6:17 PM EST
Astronomical Twilight 5:58 AM EST 6:50 PM EST
Moon 1:34 PM EST 12:48 AM EST
Length of Visible Light 10h 37m
Length of Day
9h 36m
First Quarter, 61% of the Moon is Illuminated
Nov 21
First Quarter
Nov 28
Full
Dec 6
Last Quarter
Dec 13
New
Dec 20
First Quarter

Hourly Weather History & Observations

Time (EST) Temp. Windchill Dew Point Humidity Pressure Visibility Wind Dir Wind Speed Gust Speed Precip Events Conditions
12:15 AM 38.7 °F - 36.9 °F 93% 30.15 in 5.0 mi Calm Calm - N/A   Clear
12:34 AM 39.0 °F - 37.4 °F 94% 30.15 in 4.0 mi Calm Calm - N/A   Clear
12:55 AM 38.1 °F - 36.7 °F 95% 30.15 in 3.0 mi Calm Calm - N/A   Clear
1:14 AM 38.7 °F - 37.4 °F 95% 30.15 in 3.0 mi Calm Calm - N/A   Clear
1:35 AM 38.5 °F - 37.6 °F 97% 30.15 in 3.0 mi Calm Calm - N/A   Clear
1:55 AM 35.4 °F - 34.5 °F 97% 30.15 in 2.5 mi Calm Calm - N/A   Clear
2:15 AM 38.7 °F - 37.8 °F 97% 30.15 in 3.0 mi Calm Calm - N/A   Clear
2:34 AM 37.4 °F - 36.7 °F 97% 30.16 in 0.8 mi Calm Calm - N/A   Mist
2:55 AM 36.0 °F - 35.1 °F 97% 30.16 in 1.8 mi Calm Calm - N/A   Mist
3:15 AM 37.9 °F - 37.2 °F 97% 30.16 in 1.2 mi Calm Calm - N/A   Mist
3:34 AM 34.9 °F - 34.0 °F 97% 30.17 in 0.2 mi Calm Calm - N/A Fog Fog
3:55 AM 34.3 °F - 33.6 °F 97% 30.17 in 0.2 mi Calm Calm - N/A Fog Fog
4:14 AM 35.4 °F - 34.9 °F 98% 30.16 in 0.2 mi Calm Calm - N/A Fog Fog
4:34 AM 35.1 °F - 34.3 °F 97% 30.16 in 0.2 mi Calm Calm - N/A Fog Fog
4:55 AM 34.2 °F - 33.3 °F 97% 30.17 in 0.2 mi Calm Calm - N/A Fog Fog
5:14 AM 33.3 °F - 32.5 °F 97% 30.17 in 0.2 mi Calm Calm - N/A Fog Fog
5:35 AM 35.2 °F - 34.7 °F 98% 30.18 in 0.2 mi Calm Calm - N/A Fog Fog
5:54 AM 33.4 °F - 32.5 °F 96% 30.18 in 0.2 mi Calm Calm - N/A Fog Fog
6:14 AM 33.1 °F - 32.5 °F 98% 30.17 in 0.8 mi Calm Calm - N/A   Overcast
6:35 AM 33.6 °F - 32.9 °F 97% 30.17 in 0.2 mi Calm Calm - N/A Fog Fog
7:15 AM 31.5 °F - 30.9 °F 98% 30.19 in 0.2 mi Calm Calm - N/A Fog Light Freezing Fog
7:35 AM 31.6 °F - 31.1 °F 98% 30.20 in 0.2 mi Calm Calm - N/A Fog Fog
7:54 AM 31.3 °F - 30.9 °F 99% 30.21 in 0.2 mi Calm Calm - N/A Fog Light Freezing Fog
8:15 AM 31.5 °F - 30.9 °F 98% 30.21 in 0.2 mi Calm Calm - N/A Fog Light Freezing Fog
8:34 AM 32.4 °F - 32.2 °F 99% 30.21 in 0.2 mi Calm Calm - N/A Fog Fog
8:55 AM 33.1 °F - 32.7 °F 99% 30.21 in 0.2 mi Calm Calm - N/A Fog Fog
9:14 AM 37.6 °F - 37.2 °F 99% 30.21 in 0.2 mi Calm Calm - N/A Fog Fog
9:35 AM 42.4 °F - 42.1 °F 99% 30.21 in 1.2 mi Calm Calm - N/A   Mostly Cloudy
9:54 AM 45.5 °F - 45.1 °F 99% 30.22 in 3.0 mi Calm Calm - N/A   Clear
10:15 AM 46.8 °F - 46.4 °F 99% 30.22 in 5.0 mi Calm Calm - N/A   Clear
10:35 AM 48.7 °F - 48.2 °F 98% 30.23 in 5.0 mi Calm Calm - N/A   Clear
10:54 AM 50.0 °F - 48.7 °F 95% 30.23 in 7.0 mi Calm Calm - N/A   Clear
11:15 AM 53.1 °F - 43.9 °F 71% 30.23 in 7.0 mi SSW 3.5 mph - N/A   Clear
11:35 AM 54.0 °F - 43.7 °F 68% 30.23 in 7.0 mi SSW 3.5 mph - N/A   Clear
11:54 AM 54.3 °F - 43.2 °F 66% 30.22 in 10.0 mi South 3.5 mph - N/A   Clear
12:15 PM 54.5 °F - 44.2 °F 68% 30.22 in 7.0 mi SW 3.5 mph - N/A   Clear
12:35 PM 55.0 °F - 43.9 °F 66% 30.20 in 7.0 mi WSW 5.8 mph - N/A   Clear
12:54 PM 55.4 °F - 43.0 °F 63% 30.20 in 7.0 mi WSW 3.5 mph - N/A   Clear
1:15 PM 55.8 °F - 42.3 °F 60% 30.20 in 7.0 mi West 3.5 mph - N/A   Clear
1:34 PM 55.9 °F - 41.5 °F 58% 30.19 in 10.0 mi SSW 8.1 mph - N/A   Clear
1:54 PM 56.5 °F - 42.3 °F 59% 30.19 in 7.0 mi WSW 5.8 mph - N/A   Clear
2:15 PM 56.5 °F - 42.3 °F 59% 30.19 in 7.0 mi West 9.2 mph - N/A   Clear
2:34 PM 55.9 °F - 42.3 °F 60% 30.19 in 7.0 mi WSW 9.2 mph - N/A   Clear
2:55 PM 55.8 °F - 43.0 °F 62% 30.18 in 7.0 mi WSW 6.9 mph - N/A   Clear
3:14 PM 55.6 °F - 43.2 °F 63% 30.18 in 7.0 mi SW 6.9 mph - N/A   Clear
3:35 PM 55.4 °F - 43.2 °F 63% 30.17 in 7.0 mi West 6.9 mph - N/A   Clear
3:54 PM 55.6 °F - 43.5 °F 64% 30.17 in 7.0 mi WSW 4.6 mph - N/A   Clear
4:15 PM 54.9 °F - 43.3 °F 65% 30.17 in 7.0 mi SW 5.8 mph - N/A   Clear
4:35 PM 54.1 °F - 43.5 °F 67% 30.17 in 7.0 mi WSW 4.6 mph - N/A   Clear
4:54 PM 53.2 °F - 43.5 °F 70% 30.16 in 7.0 mi SW 3.5 mph - N/A   Clear
5:15 PM 52.0 °F - 43.2 °F 72% 30.16 in 7.0 mi Calm Calm - N/A   Clear
5:34 PM 51.1 °F - 43.0 °F 74% 30.17 in 7.0 mi Calm Calm - N/A   Clear
5:55 PM 48.0 °F - 42.6 °F 82% 30.17 in 7.0 mi Calm Calm - N/A   Clear
6:14 PM 47.3 °F - 43.2 °F 86% 30.17 in 7.0 mi Calm Calm - N/A   Clear
6:35 PM 47.5 °F - 43.0 °F 84% 30.17 in 7.0 mi Calm Calm - N/A   Clear
6:55 PM 45.1 °F - 41.5 °F 87% 30.17 in 7.0 mi Calm Calm - N/A   Clear
7:14 PM 46.2 °F - 43.0 °F 88% 30.17 in 5.0 mi Calm Calm - N/A   Clear
7:35 PM 45.7 °F - 42.6 °F 89% 30.17 in 5.0 mi Calm Calm - N/A   Clear
7:54 PM 44.2 °F - 42.3 °F 93% 30.16 in 4.0 mi Calm Calm - N/A   Clear
8:15 PM 42.4 °F - 41.2 °F 95% 30.16 in 3.0 mi Calm Calm - N/A   Clear
8:35 PM 42.3 °F - 41.2 °F 96% 30.16 in 2.5 mi Calm Calm - N/A   Clear
8:54 PM 41.5 °F 39.6 °F 40.6 °F 97% 30.16 in 2.5 mi SW 3.5 mph - N/A   Clear
9:14 PM 42.6 °F 40.9 °F 41.7 °F 97% 30.16 in 3.0 mi SW 3.5 mph - N/A   Clear
9:35 PM 41.5 °F 39.6 °F 40.6 °F 97% 30.17 in 2.5 mi SW 3.5 mph - N/A   Clear
9:54 PM 42.1 °F - 41.2 °F 97% 30.16 in 2.5 mi Calm Calm - N/A   Clear
10:15 PM 43.0 °F - 42.1 °F 97% 30.17 in 2.5 mi Calm Calm - N/A   Clear
10:34 PM 42.1 °F - 41.2 °F 97% 30.16 in 3.0 mi Calm Calm - N/A   Clear
10:55 PM 41.2 °F 39.2 °F 40.1 °F 96% 30.16 in 2.5 mi SW 3.5 mph - N/A   Clear
11:14 PM 40.5 °F 38.4 °F 39.6 °F 97% 30.16 in 2.0 mi SSW 3.5 mph - N/A   Clear
11:35 PM 40.5 °F 37.3 °F 39.7 °F 97% 30.16 in 2.0 mi SSW 4.6 mph - N/A   Clear
11:55 PM 41.7 °F - 41.2 °F 98% 30.16 in 2.0 mi Calm Calm - N/A   Clear